This is the latest recevied weather packets stored in our database for station/object EA1CUE-WX. If no packets are shown the sender has not sent any weather packets the latest 10 day(s).
| Time | Temp. | Humidity | Pressure | Rain* | Wind** | Luminosity | Snow |
|---|---|---|---|---|---|---|---|
| 1787409787 | 27.78° C | 23% | 1013.6 hPa | 0 mm | - | - | - |
| 1787409487 | 27.78° C | 22% | 1013.4 hPa | 0 mm | - | - | - |
| 1787409187 | 27.78° C | 21% | 1013.6 hPa | 0 mm | - | - | - |
| 1787408887 | 27.78° C | 22% | 1013.6 hPa | 0 mm | - | - | - |
| 1787408587 | 27.78° C | 22% | 1013.6 hPa | 0 mm | - | - | - |
| 1787408287 | 27.78° C | 21% | 1013.5 hPa | 0 mm | - | - | - |
| 1787407987 | 27.78° C | 24% | 1013.5 hPa | 0 mm | - | - | - |
| 1787407687 | 27.78° C | 28% | 1013.5 hPa | 0 mm | - | - | - |
| 1787407387 | 27.78° C | 26% | 1013.4 hPa | 0 mm | - | - | - |
| 1787407087 | 27.22° C | 28% | 1013.3 hPa | 0 mm | - | - | - |
| 1787406787 | 27.22° C | 28% | 1013.4 hPa | 0 mm | - | - | - |
| 1787406487 | 27.22° C | 30% | 1013.3 hPa | 0 mm | - | - | - |
| 1787406187 | 26.67° C | 30% | 1013.2 hPa | 0 mm | - | - | - |
| 1787405887 | 26.67° C | 29% | 1013.2 hPa | 0 mm | - | - | - |
| 1787405587 | 26.67° C | 31% | 1013.2 hPa | 0 mm | - | - | - |
| 1787405287 | 26.11° C | 30% | 1013.2 hPa | 0 mm | - | - | - |
| 1787404987 | 26.11° C | 30% | 1013.3 hPa | 0 mm | - | - | - |
| 1787404687 | 26.67° C | 29% | 1013.3 hPa | 0 mm | - | - | - |
| 1787404387 | 26.67° C | 33% | 1013.2 hPa | 0 mm | - | - | - |
| 1787404087 | 26.67° C | 31% | 1013.1 hPa | 0 mm | - | - | - |
| 1787403787 | 26.67° C | 33% | 1013.1 hPa | 0 mm | - | - | - |
| 1787403487 | 26.11° C | 35% | 1013.2 hPa | 0 mm | - | - | - |
| 1787403187 | 26.11° C | 35% | 1013.1 hPa | 0 mm | - | - | - |
| 1787402887 | 26.11° C | 36% | 1013.1 hPa | 0 mm | - | - | - |
| 1787402587 | 26.11° C | 36% | 1013.1 hPa | 0 mm | - | - | - |
* Rain latest hour (hover to see other rain measurements)
** Current wind speed in m/s (hover to see current wind gust speed)